{"data":{"norad_id":61730,"intl_designator":"2024-197A","name":"COSMOS 2579","alt_names":[],"object_type":"PAYLOAD","status":"ACTIVE","operator":null,"country":"CIS","launch_date":"2024-10-31","launch_site_code":"PLMSC","launch_vehicle":null,"mission":null,"orbit_class":"UNKNOWN","rcs_meters":null,"size_class":null,"mass_kg":null,"dimensions":null,"purposes":[],"wikipedia_slug":null,"has_3d_model":false,"image_url":null,"decayed_at":null,"tle_current":{"epoch":"2026-05-25T04:05:10.701600Z","epoch_age_seconds":60606,"freshness":"FRESH","line1":"1 61730U 24197A   26145.17026275  .00003155  00000+0  13058-3 0  9991","line2":"2 61730  97.5588  68.9386 0003154  96.2941 263.8656 15.24705416 86965","mean_motion":15.24705416,"eccentricity":0.0003154,"inclination_deg":97.5588,"raan_deg":68.9386,"arg_perigee_deg":96.2941,"mean_anomaly_deg":263.8656,"bstar":0.00013057999999999999,"rev_number":8696,"period_min":94.444473331627,"perigee_km":489.50341808198,"apogee_km":493.83689243552,"semimajor_km":6869.8071552588,"source":"CELESTRAK","updated_at":"2026-05-25T13:38:02.528677Z"}}}